Time,TemperatureF,DewpointF,PressureIn,WindDirection,WindDirectionDegrees,WindSpeedMPH,WindSpeedGustMPH,Humidity,HourlyPrecipIn,Conditions,Clouds,dailyrainin,SoftwareType,DateUTC
2013-07-27 00:02:00,77.0,74.0,30.01,East,96,1.0,1.0,89,-99.99,,,-99.99,,2013-07-27 04:02:00,
2013-07-27 00:12:00,77.0,74.0,30.01,East,96,1.0,1.0,89,-99.99,,,-99.99,,2013-07-27 04:12:00,
2013-07-27 00:22:00,77.0,74.0,30.01,East,96,1.0,1.0,89,-99.99,,,-99.99,,2013-07-27 04:22:00,
2013-07-27 00:53:00,77.0,74.0,30.02,South,176,2.0,3.0,90,-99.99,,,-99.99,,2013-07-27 04:53:00,
2013-07-27 01:12:00,76.0,73.0,30.02,East,96,1.0,1.0,89,-99.99,,,-99.99,,2013-07-27 05:12:00,
2013-07-27 01:22:00,76.0,73.0,30.01,SSE,164,1.0,1.0,90,-99.99,,,-99.99,,2013-07-27 05:22:00,
2013-07-27 01:32:00,76.0,73.0,30.01,SSE,164,1.0,1.0,90,-99.99,,,-99.99,,2013-07-27 05:32:00,
2013-07-27 01:43:00,76.0,73.0,30.01,NE,38,1.0,2.0,90,-99.99,,,-99.99,,2013-07-27 05:43:00,
2013-07-27 01:52:00,76.0,73.0,30.01,NE,38,1.0,2.0,90,-99.99,,,-99.99,,2013-07-27 05:52:00,
2013-07-27 02:12:00,76.0,73.0,30.00,South,179,1.0,3.0,90,-99.99,,,-99.99,,2013-07-27 06:12:00,
2013-07-27 02:22:00,76.0,73.0,30.00,SW,225,2.0,3.0,91,-99.99,,,-99.99,,2013-07-27 06:22:00,
2013-07-27 02:33:00,76.0,73.0,30.00,SW,225,2.0,3.0,91,-99.99,,,-99.99,,2013-07-27 06:33:00,
2013-07-27 02:43:00,76.0,73.0,29.99,WNW,303,3.0,3.0,91,-99.99,,,-99.99,,2013-07-27 06:43:00,
2013-07-27 02:52:00,76.0,73.0,29.99,WNW,303,3.0,3.0,91,-99.99,,,-99.99,,2013-07-27 06:52:00,
2013-07-27 03:02:00,76.0,73.0,29.99,WNW,303,3.0,3.0,91,-99.99,,,-99.99,,2013-07-27 07:02:00,
2013-07-27 03:22:00,75.0,73.0,29.98,SE,142,2.0,3.0,91,-99.99,,,-99.99,,2013-07-27 07:22:00,
2013-07-27 03:34:00,75.0,73.0,29.98,SE,142,2.0,3.0,91,-99.99,,,-99.99,,2013-07-27 07:34:00,
2013-07-27 03:53:00,75.0,72.0,29.97,SW,235,1.0,2.0,91,-99.99,,,-99.99,,2013-07-27 07:53:00,
2013-07-27 04:02:00,75.0,72.0,29.97,NNW,337,2.0,2.0,91,-99.99,,,-99.99,,2013-07-27 08:02:00,
2013-07-27 04:12:00,75.0,72.0,29.97,NNW,337,2.0,2.0,91,-99.99,,,-99.99,,2013-07-27 08:12:00,
2013-07-27 04:32:00,74.0,72.0,29.97,SSW,198,2.0,4.0,91,-99.99,,,-99.99,,2013-07-27 08:32:00,
2013-07-27 04:43:00,74.0,72.0,29.96,East,81,0.0,1.0,91,-99.99,,,-99.99,,2013-07-27 08:43:00,
2013-07-27 04:53:00,74.0,72.0,29.96,East,81,0.0,1.0,91,-99.99,,,-99.99,,2013-07-27 08:53:00,
2013-07-27 05:02:00,74.0,71.0,29.96,NE,56,1.0,2.0,91,-99.99,,,-99.99,,2013-07-27 09:02:00,
2013-07-27 05:12:00,74.0,71.0,29.96,East,82,2.0,2.0,92,-99.99,,,-99.99,,2013-07-27 09:12:00,
2013-07-27 05:22:00,74.0,71.0,29.96,East,82,2.0,2.0,92,-99.99,,,-99.99,,2013-07-27 09:22:00,
2013-07-27 05:33:00,74.0,71.0,29.96,East,82,2.0,2.0,92,-99.99,,,-99.99,,2013-07-27 09:33:00,
2013-07-27 05:44:00,74.0,71.0,29.96,West,279,1.0,2.0,92,-99.99,,,-99.99,,2013-07-27 09:44:00,
2013-07-27 05:52:00,74.0,71.0,29.96,West,279,1.0,2.0,92,-99.99,,,-99.99,,2013-07-27 09:52:00,
2013-07-27 06:02:00,73.0,71.0,29.96,ESE,114,2.0,2.0,92,-99.99,,,-99.99,,2013-07-27 10:02:00,
2013-07-27 06:22:00,73.0,71.0,29.97,East,79,1.0,2.0,92,-99.99,,,-99.99,,2013-07-27 10:22:00,
2013-07-27 06:32:00,73.0,71.0,29.97,East,79,1.0,2.0,92,-99.99,,,-99.99,,2013-07-27 10:32:00,
2013-07-27 06:52:00,73.0,71.0,29.97,East,99,2.0,2.0,92,-99.99,,,-99.99,,2013-07-27 10:52:00,
2013-07-27 07:22:00,73.0,71.0,29.98,WSW,244,2.0,3.0,92,-99.99,,,-99.99,,2013-07-27 11:22:00,
2013-07-27 07:32:00,73.0,71.0,29.98,WSW,244,2.0,3.0,92,-99.99,,,-99.99,,2013-07-27 11:32:00,
2013-07-27 07:53:00,73.0,71.0,29.99,East,97,2.0,4.0,92,-99.99,,,-99.99,,2013-07-27 11:53:00,
2013-07-27 08:03:00,73.0,71.0,29.99,East,97,2.0,4.0,92,-99.99,,,-99.99,,2013-07-27 12:03:00,
2013-07-27 08:22:00,75.0,73.0,30.00,NE,53,2.0,3.0,92,-99.99,,,-99.99,,2013-07-27 12:22:00,
2013-07-27 08:33:00,75.0,73.0,30.00,NE,53,2.0,3.0,92,-99.99,,,-99.99,,2013-07-27 12:33:00,
2013-07-27 08:43:00,75.0,73.0,30.00,NE,53,2.0,3.0,92,-99.99,,,-99.99,,2013-07-27 12:43:00,
2013-07-27 08:52:00,77.0,74.0,30.01,West,267,1.0,2.0,91,-99.99,,,-99.99,,2013-07-27 12:52:00,
2013-07-27 09:02:00,77.0,74.0,30.01,West,267,1.0,2.0,91,-99.99,,,-99.99,,2013-07-27 13:02:00,
2013-07-27 09:12:00,77.0,74.0,30.01,West,279,3.0,4.0,90,-99.99,,,-99.99,,2013-07-27 13:12:00,
2013-07-27 09:22:00,78.0,74.0,30.01,West,279,3.0,5.0,86,-99.99,,,-99.99,,2013-07-27 13:22:00,
2013-07-27 09:32:00,78.0,74.0,30.01,West,279,3.0,5.0,86,-99.99,,,-99.99,,2013-07-27 13:32:00,
2013-07-27 09:44:00,78.0,74.0,30.01,West,279,3.0,5.0,86,-99.99,,,-99.99,,2013-07-27 13:44:00,
2013-07-27 09:53:00,80.0,74.0,30.01,West,278,2.0,5.0,79,-99.99,,,-99.99,,2013-07-27 13:53:00,
2013-07-27 10:12:00,82.0,74.0,30.01,WNW,296,2.0,3.0,76,-99.99,,,-99.99,,2013-07-27 14:12:00,
2013-07-27 10:22:00,82.0,74.0,30.01,WNW,289,3.0,5.0,74,-99.99,,,-99.99,,2013-07-27 14:22:00,
2013-07-27 10:32:00,82.0,74.0,30.01,WNW,289,3.0,5.0,74,-99.99,,,-99.99,,2013-07-27 14:32:00,
2013-07-27 10:44:00,84.0,73.0,30.01,NW,312,4.0,7.0,68,-99.99,,,-99.99,,2013-07-27 14:44:00,
2013-07-27 10:54:00,84.0,73.0,30.01,NW,312,4.0,7.0,68,-99.99,,,-99.99,,2013-07-27 14:54:00,
2013-07-27 11:22:00,85.0,73.0,30.01,WNW,293,5.0,8.0,67,-99.99,,,-99.99,,2013-07-27 15:22:00,
2013-07-27 11:33:00,85.0,73.0,30.01,WNW,293,5.0,8.0,67,-99.99,,,-99.99,,2013-07-27 15:33:00,
2013-07-27 11:44:00,85.0,74.0,30.01,NW,320,5.0,8.0,68,-99.99,,,-99.99,,2013-07-27 15:44:00,
2013-07-27 11:53:00,85.0,74.0,30.01,NW,320,5.0,8.0,68,-99.99,,,-99.99,,2013-07-27 15:53:00,
2013-07-27 12:02:00,86.0,74.0,30.01,NW,315,7.0,10.0,66,-99.99,,,-99.99,,2013-07-27 16:02:00,
2013-07-27 12:12:00,86.0,74.0,30.01,WNW,297,7.0,12.0,65,-99.99,,,-99.99,,2013-07-27 16:12:00,
2013-07-27 12:23:00,86.0,74.0,30.01,WNW,297,7.0,12.0,65,-99.99,,,-99.99,,2013-07-27 16:23:00,
2013-07-27 12:33:00,86.0,74.0,30.01,WNW,297,7.0,12.0,65,-99.99,,,-99.99,,2013-07-27 16:33:00,
2013-07-27 12:43:00,87.0,73.0,30.00,NW,312,6.0,10.0,63,-99.99,,,-99.99,,2013-07-27 16:43:00,
2013-07-27 12:54:00,87.0,73.0,30.00,NW,312,6.0,10.0,63,-99.99,,,-99.99,,2013-07-27 16:54:00,
2013-07-27 13:02:00,88.0,74.0,30.00,NW,305,5.0,9.0,62,-99.99,,,-99.99,,2013-07-27 17:02:00,
2013-07-27 13:12:00,88.0,74.0,29.99,South,173,4.0,8.0,63,-99.99,,,-99.99,,2013-07-27 17:12:00,
2013-07-27 13:22:00,88.0,74.0,29.99,South,173,4.0,8.0,63,-99.99,,,-99.99,,2013-07-27 17:22:00,
2013-07-27 13:32:00,88.0,74.0,29.99,South,173,4.0,8.0,63,-99.99,,,-99.99,,2013-07-27 17:32:00,
2013-07-27 13:43:00,87.0,74.0,29.98,South,178,5.0,10.0,65,-99.99,,,-99.99,,2013-07-27 17:43:00,
2013-07-27 13:54:00,87.0,74.0,29.98,South,178,5.0,10.0,65,-99.99,,,-99.99,,2013-07-27 17:54:00,
2013-07-27 14:03:00,88.0,74.0,29.98,NE,42,6.0,8.0,63,-99.99,,,-99.99,,2013-07-27 18:03:00,
2013-07-27 14:12:00,88.0,74.0,29.98,NE,42,6.0,8.0,63,-99.99,,,-99.99,,2013-07-27 18:12:00,
2013-07-27 14:22:00,88.0,74.0,29.98,NE,42,6.0,8.0,63,-99.99,,,-99.99,,2013-07-27 18:22:00,
2013-07-27 14:33:00,88.0,74.0,29.98,ENE,65,5.0,9.0,63,-99.99,,,-99.99,,2013-07-27 18:33:00,
2013-07-27 14:43:00,87.0,73.0,29.97,ENE,73,3.0,7.0,63,-99.99,,,-99.99,,2013-07-27 18:43:00,
2013-07-27 14:53:00,87.0,74.0,29.97,ESE,117,2.0,5.0,65,-99.99,,,-99.99,,2013-07-27 18:53:00,
2013-07-27 15:02:00,87.0,75.0,29.96,SE,131,5.0,8.0,67,-99.99,,,-99.99,,2013-07-27 19:02:00,
2013-07-27 15:12:00,87.0,74.0,29.96,SE,130,6.0,8.0,65,-99.99,,,-99.99,,2013-07-27 19:12:00,
2013-07-27 15:23:00,87.0,74.0,29.96,SE,130,6.0,8.0,65,-99.99,,,-99.99,,2013-07-27 19:23:00,
2013-07-27 15:32:00,87.0,74.0,29.96,SE,130,6.0,8.0,65,-99.99,,,-99.99,,2013-07-27 19:32:00,
2013-07-27 15:43:00,87.0,72.0,29.96,SW,230,8.0,16.0,61,-99.99,,,-99.99,,2013-07-27 19:43:00,
2013-07-27 15:53:00,87.0,72.0,29.96,SW,230,8.0,16.0,61,-99.99,,,-99.99,,2013-07-27 19:53:00,
2013-07-27 17:12:00,81.0,74.0,29.94,SE,136,6.0,36.0,77,-99.99,,,-99.99,,2013-07-27 21:12:00,
2013-07-27 17:23:00,81.0,74.0,29.94,SE,136,6.0,36.0,77,-99.99,,,-99.99,,2013-07-27 21:23:00,
2013-07-27 17:43:00,84.0,74.0,29.93,ENE,69,5.0,9.0,73,-99.99,,,-99.99,,2013-07-27 21:43:00,
2013-07-27 17:53:00,84.0,74.0,29.93,ENE,69,5.0,9.0,73,-99.99,,,-99.99,,2013-07-27 21:53:00,
2013-07-27 18:12:00,87.0,73.0,29.94,ENE,78,4.0,5.0,63,-99.99,,,-99.99,,2013-07-27 22:12:00,
2013-07-27 18:22:00,87.0,73.0,29.94,ENE,78,4.0,5.0,63,-99.99,,,-99.99,,2013-07-27 22:22:00,
2013-07-27 18:33:00,87.0,73.0,29.94,ENE,78,4.0,5.0,63,-99.99,,,-99.99,,2013-07-27 22:33:00,
2013-07-27 18:43:00,88.0,72.0,29.95,ESE,106,4.0,6.0,59,-99.99,,,-99.99,,2013-07-27 22:43:00,
2013-07-27 18:53:00,88.0,72.0,29.95,ESE,106,4.0,6.0,59,-99.99,,,-99.99,,2013-07-27 22:53:00,
2013-07-27 19:02:00,89.0,71.0,29.95,ESE,118,5.0,7.0,54,-99.99,,,-99.99,,2013-07-27 23:02:00,
2013-07-27 19:12:00,87.0,73.0,29.95,ENE,67,8.0,13.0,63,-99.99,,,-99.99,,2013-07-27 23:12:00,
2013-07-27 19:22:00,87.0,73.0,29.95,ENE,67,8.0,13.0,63,-99.99,,,-99.99,,2013-07-27 23:22:00,
2013-07-27 19:32:00,87.0,73.0,29.95,ENE,67,8.0,13.0,63,-99.99,,,-99.99,,2013-07-27 23:32:00,
2013-07-27 19:44:00,82.0,72.0,29.95,ENE,66,8.0,13.0,71,-99.99,,,-99.99,,2013-07-27 23:44:00,
2013-07-27 19:53:00,82.0,72.0,29.95,ENE,66,8.0,13.0,71,-99.99,,,-99.99,,2013-07-27 23:53:00,
2013-07-27 20:02:00,81.0,72.0,29.96,East,83,6.0,12.0,72,-99.99,,,-99.99,,2013-07-28 00:02:00,
2013-07-27 20:12:00,81.0,73.0,29.97,SSE,158,5.0,9.0,75,-99.99,,,-99.99,,2013-07-28 00:12:00,
2013-07-27 20:23:00,81.0,73.0,29.97,SSE,158,5.0,9.0,75,-99.99,,,-99.99,,2013-07-28 00:23:00,
2013-07-27 20:32:00,81.0,73.0,29.98,SW,228,8.0,13.0,76,-99.99,,,-99.99,,2013-07-28 00:32:00,
2013-07-27 20:53:00,78.0,73.0,29.98,WNW,292,9.0,13.0,83,-99.99,,,-99.99,,2013-07-28 00:53:00,
2013-07-27 21:02:00,77.0,72.0,29.97,South,175,9.0,12.0,86,-99.99,,,-99.99,,2013-07-28 01:02:00,
2013-07-27 21:12:00,76.0,72.0,29.96,NE,55,7.0,9.0,86,-99.99,,,-99.99,,2013-07-28 01:12:00,
2013-07-27 21:23:00,76.0,72.0,29.96,NE,55,7.0,9.0,86,-99.99,,,-99.99,,2013-07-28 01:23:00,
2013-07-27 21:43:00,77.0,73.0,29.97,SE,135,5.0,7.0,87,-99.99,,,-99.99,,2013-07-28 01:43:00,
2013-07-27 21:53:00,77.0,73.0,29.97,SE,135,5.0,7.0,87,-99.99,,,-99.99,,2013-07-28 01:53:00,
2013-07-27 22:03:00,77.0,73.0,29.97,SSE,149,4.0,5.0,88,-99.99,,,-99.99,,2013-07-28 02:03:00,
2013-07-27 22:12:00,77.0,74.0,29.97,SW,233,3.0,5.0,88,-99.99,,,-99.99,,2013-07-28 02:12:00,
2013-07-27 22:22:00,77.0,74.0,29.97,SW,233,3.0,5.0,88,-99.99,,,-99.99,,2013-07-28 02:22:00,
2013-07-27 22:32:00,77.0,74.0,29.97,SW,233,3.0,5.0,88,-99.99,,,-99.99,,2013-07-28 02:32:00,
2013-07-27 22:42:00,77.0,74.0,29.99,SSE,157,1.0,2.0,88,-99.99,,,-99.99,,2013-07-28 02:42:00,
2013-07-27 22:53:00,77.0,74.0,29.99,SSE,157,1.0,2.0,88,-99.99,,,-99.99,,2013-07-28 02:53:00,
2013-07-27 23:03:00,78.0,74.0,29.99,SW,229,1.0,1.0,88,-99.99,,,-99.99,,2013-07-28 03:03:00,
2013-07-27 23:12:00,77.0,74.0,30.00,South,183,1.0,2.0,88,-99.99,,,-99.99,,2013-07-28 03:12:00,
2013-07-27 23:22:00,77.0,74.0,30.00,South,183,1.0,2.0,88,-99.99,,,-99.99,,2013-07-28 03:22:00,
2013-07-27 23:42:00,77.0,73.0,30.00,SW,233,3.0,5.0,86,-99.99,,,-99.99,,2013-07-28 03:42:00,
2013-07-27 23:53:00,77.0,73.0,30.00,SW,233,3.0,5.0,86,-99.99,,,-99.99,,2013-07-28 03:53:00,